Weather History for Monroe, MI

Change the Weather History Date:

Tuesday, September 10, 2013

  Actual Average Record
Temperature  
Mean Temperature 85 °F -  
Max Temperature 95 °F 78 °F 95 °F (1964)
Min Temperature 75 °F 56 °F 42 °F (1998)
Cooling Degree Days 20    
Growing Degree Days 35 (Base 50)    
Moisture  
Dew Point 72 °F    
Average Humidity 69    
Maximum Humidity 89    
Minimum Humidity 44    
Precipitation  
Precipitation 0.00 in - - ()
Sea Level Pressure  
Sea Level Pressure 29.97 in    
Wind  
Wind Speed 8 mph (WSW)    
Max Wind Speed 15 mph    
Max Gust Speed 17 mph    
Visibility 9 miles    
Events      
Averages and records for this station are not official NWS values.
T = Trace of Precipitation, MM = Missing Value Source: NWS Daily Summary

Daily Weather History Graph

Daily Weather History Graph

Search for Another Location

Airport:

Trip Planner

Search our weather history database for the weather conditions in past years. The results will help you decide how hot, cold, wet, or windy it might be!

Date:

Astronomy

Sep. 10, 2013 Rise Set
Actual Time 7:08 AM EDT 7:51 PM EDT
Civil Twilight 6:40 AM EDT 8:19 PM EDT
Nautical Twilight 6:07 AM EDT 8:52 PM EDT
Astronomical Twilight 5:32 AM EDT 9:27 PM EDT
Moon 12:39 PM EDT (9/10) 10:47 PM EDT (9/10)
Length of Visible Light 13h 38m
Length of Day
12h 42m
Waxing Crescent, 28% of the Moon is Illuminated
Sep 10
Waxing Crescent
Sep 12
First Quarter
Sep 19
Full
Sep 26
Last Quarter
Oct 4
New

Hourly Weather History & Observations

Time (EDT) Temp. Heat Index Dew Point Humidity Pressure Visibility Wind Dir Wind Speed Gust Speed Precip Events Conditions
12:15 AM 75.2 °F - 71.6 °F 89% 29.91 in 7.0 mi South 5.8 mph - N/A   Clear
12:36 AM 75.2 °F - 71.6 °F 89% 29.91 in 10.0 mi South 6.9 mph - N/A   Clear
12:56 AM 75.2 °F - 71.6 °F 89% 29.91 in 10.0 mi SSW 5.8 mph - N/A   Clear
1:16 AM 77.0 °F - 71.6 °F 83% 29.91 in 10.0 mi SSW 6.9 mph - N/A   Clear
1:36 AM 77.0 °F - 71.6 °F 83% 29.91 in 10.0 mi SSW 6.9 mph - N/A   Clear
1:56 AM 78.8 °F - 71.6 °F 78% 29.91 in 10.0 mi SSW 6.9 mph - N/A   Clear
2:16 AM 78.8 °F - 71.6 °F 78% 29.91 in 10.0 mi SSW 6.9 mph - N/A   Clear
2:36 AM 78.8 °F - 71.6 °F 78% 29.91 in 10.0 mi SSW 6.9 mph - N/A   Clear
2:56 AM 80.6 °F 84.6 °F 71.6 °F 74% 29.91 in 10.0 mi SW 8.1 mph - N/A   Clear
3:16 AM 80.6 °F 85.4 °F 73.4 °F 79% 29.92 in 10.0 mi SW 10.4 mph 16.1 mph N/A   Clear
3:36 AM 80.6 °F 85.4 °F 73.4 °F 79% 29.92 in 10.0 mi SW 10.4 mph 17.3 mph N/A   Clear
3:52 AM 80.6 °F 85.4 °F 73.4 °F 79% 29.92 in 10.0 mi SW 9.2 mph - N/A   Clear
4:12 AM 78.8 °F - 73.4 °F 83% 29.93 in 10.0 mi SW 12.7 mph - N/A   Clear
4:32 AM 78.8 °F - 73.4 °F 83% 29.93 in 7.0 mi WSW 9.2 mph 16.1 mph N/A   Clear
4:52 AM 78.8 °F - 73.4 °F 83% 29.94 in 7.0 mi WSW 9.2 mph - N/A   Clear
5:12 AM 78.8 °F - 73.4 °F 83% 29.94 in 7.0 mi WSW 8.1 mph - N/A   Clear
5:32 AM 78.8 °F - 73.4 °F 83% 29.95 in 7.0 mi WSW 8.1 mph - N/A   Clear
5:52 AM 77.0 °F - 73.4 °F 89% 29.95 in 7.0 mi WSW 10.4 mph - N/A   Clear
6:12 AM 77.0 °F - 73.4 °F 89% 29.95 in 7.0 mi WSW 9.2 mph - N/A   Clear
6:32 AM 77.0 °F - 73.4 °F 89% 29.96 in 7.0 mi SW 8.1 mph - N/A   Clear
6:52 AM 77.0 °F - 73.4 °F 89% 29.96 in 7.0 mi WSW 9.2 mph - N/A   Clear
7:13 AM 78.8 °F - 73.4 °F 83% 29.96 in 7.0 mi WSW 10.4 mph - N/A   Clear
7:33 AM 78.8 °F - 73.4 °F 83% 29.97 in 5.0 mi WSW 9.2 mph - N/A   Haze
7:53 AM 78.8 °F - 73.4 °F 83% 29.97 in 5.0 mi WSW 9.2 mph - N/A   Clear
8:13 AM 78.8 °F - 73.4 °F 83% 29.98 in 5.0 mi WSW 9.2 mph - N/A   Haze
8:33 AM 78.8 °F - 73.4 °F 83% 29.98 in 7.0 mi WSW 10.4 mph - N/A   Clear
8:53 AM 80.6 °F 85.4 °F 73.4 °F 79% 29.98 in 7.0 mi WSW 10.4 mph - N/A   Clear
9:13 AM 80.6 °F 86.2 °F 75.2 °F 84% 29.99 in 7.0 mi WSW 9.2 mph - N/A   Clear
9:33 AM 82.4 °F 89.5 °F 75.2 °F 79% 29.99 in 7.0 mi WSW 10.4 mph - N/A   Clear
9:53 AM 82.4 °F 89.5 °F 75.2 °F 79% 29.99 in 7.0 mi WSW 10.4 mph 17.3 mph N/A   Clear
10:14 AM 84.2 °F 92.3 °F 75.2 °F 74% 30.00 in 7.0 mi WSW 10.4 mph - N/A   Clear
10:34 AM 84.2 °F 92.3 °F 75.2 °F 74% 30.00 in 7.0 mi WSW 10.4 mph - N/A   Clear
10:54 AM 86.0 °F 95.1 °F 75.2 °F 70% 30.00 in 10.0 mi WSW 9.2 mph 17.3 mph N/A   Clear
11:14 AM 87.8 °F 97.6 °F 75.2 °F 66% 30.00 in 10.0 mi WSW 10.4 mph 16.1 mph N/A   Clear
11:34 AM 87.8 °F 97.6 °F 75.2 °F 66% 30.00 in 10.0 mi WSW 11.5 mph - N/A   Clear
11:54 AM 87.8 °F 95.6 °F 73.4 °F 62% 30.01 in 10.0 mi WSW 11.5 mph - N/A   Clear
12:14 PM 89.6 °F 99.8 °F 75.2 °F 62% 30.01 in 10.0 mi West 12.7 mph - N/A   Clear
12:34 PM 89.6 °F 99.8 °F 75.2 °F 62% 30.00 in 10.0 mi WSW 11.5 mph 17.3 mph N/A   Clear
12:54 PM 91.4 °F 102.5 °F 75.2 °F 59% 30.00 in 10.0 mi WSW 9.2 mph - N/A   Clear
1:14 PM 91.4 °F 102.5 °F 75.2 °F 59% 30.00 in 10.0 mi West 9.2 mph - N/A   Clear
1:35 PM 93.2 °F 102.4 °F 73.4 °F 52% 30.00 in 10.0 mi West 11.5 mph - N/A   Clear
1:55 PM 93.2 °F 100.5 °F 71.6 °F 49% 30.00 in 10.0 mi West 10.4 mph 17.3 mph N/A   Clear
2:15 PM 93.2 °F 102.4 °F 73.4 °F 52% 30.00 in 10.0 mi WSW 9.2 mph - N/A   Clear
2:35 PM 93.2 °F 100.5 °F 71.6 °F 49% 30.00 in 10.0 mi West 10.4 mph - N/A   Clear
2:55 PM 93.2 °F 98.8 °F 69.8 °F 46% 29.99 in 10.0 mi West 15.0 mph - N/A   Clear
3:15 PM 95.0 °F 101.3 °F 69.8 °F 44% 29.99 in 10.0 mi West 12.7 mph 16.1 mph N/A   Clear
3:35 PM 95.0 °F 101.3 °F 69.8 °F 44% 29.99 in 10.0 mi West 8.1 mph - N/A   Clear
3:55 PM 95.0 °F 103.2 °F 71.6 °F 47% 29.98 in 10.0 mi West 8.1 mph - N/A   Clear
4:15 PM 95.0 °F 103.2 °F 71.6 °F 47% 29.98 in 10.0 mi West 8.1 mph - N/A   Clear
4:36 PM 95.0 °F 101.3 °F 69.8 °F 44% 29.98 in 10.0 mi West 9.2 mph - N/A   Clear
4:56 PM 95.0 °F 101.3 °F 69.8 °F 44% 29.98 in 10.0 mi West 6.9 mph - N/A   Clear
5:16 PM 93.2 °F 100.5 °F 71.6 °F 49% 29.97 in 10.0 mi NW 4.6 mph - N/A   Clear
5:36 PM 93.2 °F 100.5 °F 71.6 °F 49% 29.97 in 10.0 mi NW 5.8 mph - N/A   Clear
5:56 PM 93.2 °F 102.4 °F 73.4 °F 52% 29.97 in 10.0 mi WNW 3.5 mph - N/A   Clear
6:16 PM 93.2 °F 105.0 °F 75.2 °F 56% 29.98 in 10.0 mi Calm Calm - N/A   Clear
6:36 PM 91.4 °F 102.5 °F 75.2 °F 59% 29.98 in 10.0 mi Calm Calm - N/A   Clear
6:56 PM 91.4 °F 102.5 °F 75.2 °F 59% 29.98 in 10.0 mi Calm Calm - N/A   Clear
7:16 PM 89.6 °F 98.2 °F 73.4 °F 59% 29.98 in 10.0 mi Calm Calm - N/A   Clear
7:36 PM 87.8 °F 95.6 °F 73.4 °F 62% 29.99 in 10.0 mi SSW 4.6 mph - N/A   Clear
7:52 PM 86.0 °F 91.8 °F 71.6 °F 62% 29.99 in 10.0 mi SSW 4.6 mph - N/A   Clear
8:12 PM 84.2 °F 89.6 °F 71.6 °F 66% 29.99 in 10.0 mi SSW 4.6 mph - N/A   Clear
8:32 PM 84.2 °F 88.4 °F 69.8 °F 62% 30.00 in 10.0 mi SW 4.6 mph - N/A   Clear
8:52 PM 82.4 °F 86.3 °F 69.8 °F 66% 30.01 in 10.0 mi SW 5.8 mph - N/A   Clear
9:12 PM 80.6 °F 83.9 °F 69.8 °F 70% 30.02 in 10.0 mi West 4.6 mph - N/A   Clear
9:32 PM 82.4 °F 85.4 °F 68.0 °F 62% 30.03 in 10.0 mi SW 3.5 mph - N/A   Clear
9:52 PM 80.6 °F 83.2 °F 68.0 °F 65% 30.02 in 10.0 mi Calm Calm - N/A   Clear
10:12 PM 78.8 °F - 68.0 °F 69% 30.02 in 10.0 mi Calm Calm - N/A   Clear
10:32 PM 78.8 °F - 68.0 °F 69% 30.02 in 10.0 mi SW 4.6 mph - N/A   Clear
10:52 PM 78.8 °F - 68.0 °F 69% 30.02 in 10.0 mi SSW 4.6 mph - N/A   Clear
11:13 PM 80.6 °F 82.7 °F 66.2 °F 61% 30.03 in 10.0 mi SSW 5.8 mph - N/A   Clear
11:33 PM 80.6 °F 82.7 °F 66.2 °F 61% 30.02 in 10.0 mi SSW 4.6 mph - N/A   Clear
11:53 PM 78.8 °F - 68.0 °F 69% 30.02 in 10.0 mi South 3.5 mph - N/A   Clear